| time (UTC) | temp C | wind direction | speed KPH | gust KPH | rain 1hr cm | rain 24hr cm | rain mn cm | humidity % | barometer mb |
| 20260505113004 | 28 | 124 | 6.4 | 19.3 | 0.00 | 0.03 | 0.00 | 81 | 1019.5 |
| 20260505111601 | 27 | 103 | 8.0 | 17.7 | 0.00 | 0.03 | 0.00 | 83 | 1019.3 |
| 20260505101546 | 25 | 167 | 8.0 | 16.1 | 0.00 | 0.03 | 0.00 | 88 | 1018.6 |
| 20260505100110 | 25 | 164 | 6.4 | 14.5 | 0.00 | 0.03 | 0.00 | 88 | 1018.6 |
| 20260505094544 | 25 | 163 | 6.4 | 12.9 | 0.00 | 0.03 | 0.00 | 89 | 1018.4 |
| 20260505093042 | 25 | 151 | 6.4 | 16.1 | 0.00 | 0.03 | 0.00 | 89 | 1018.3 |
| 20260505091604 | 25 | 151 | 4.8 | 12.9 | 0.00 | 0.03 | 0.00 | 89 | 1018.1 |
| 20260505090055 | 25 | 149 | 3.2 | 12.9 | 0.00 | 0.03 | 0.00 | 89 | 1018.1 |
| 20260505084543 | 25 | 150 | 1.6 | 12.9 | 0.00 | 0.03 | 0.00 | 89 | 1018.0 |
| 20260505083048 | 25 | 149 | 1.6 | 8.0 | 0.00 | 0.03 | 0.00 | 89 | 1017.9 |
| 20260505081545 | 25 | 149 | 1.6 | 11.3 | 0.00 | 0.03 | 0.00 | 89 | 1017.9 |
| 20260505080049 | 25 | 149 | 1.6 | 8.0 | 0.00 | 0.03 | 0.00 | 89 | 1017.8 |
| 20260505074542 | 25 | 149 | 1.6 | 9.7 | 0.00 | 0.03 | 0.00 | 89 | 1017.6 |
| 20260505073050 | 25 | 149 | 0.0 | 8.0 | 0.00 | 0.03 | 0.00 | 89 | 1017.7 |
| 20260505071543 | 25 | 149 | 1.6 | 8.0 | 0.00 | 0.03 | 0.00 | 89 | 1017.8 |
| 20260505070038 | 25 | 149 | 0.0 | 3.2 | 0.00 | 0.03 | 0.00 | 89 | 1017.7 |
| 20260505064536 | 25 | 149 | 0.0 | 1.6 | 0.00 | 0.03 | 0.00 | 89 | 1017.7 |
| 20260505063045 | 25 | 149 | 0.0 | 1.6 | 0.00 | 0.03 | 0.00 | 89 | 1017.9 |
| 20260505061539 | 25 | 149 | 0.0 | 3.2 | 0.00 | 0.03 | 0.00 | 89 | 1017.9 |
| 20260505060033 | 25 | 149 | 0.0 | 4.8 | 0.00 | 0.03 | 0.00 | 88 | 1018.2 |
| 20260505054541 | 25 | 149 | 3.2 | 8.0 | 0.00 | 0.03 | 0.00 | 88 | 1018.3 |
| 20260505053028 | 25 | 149 | 0.0 | 8.0 | 0.00 | 0.03 | 0.00 | 88 | 1018.4 |
| 20260505051536 | 25 | 149 | 1.6 | 9.7 | 0.00 | 0.03 | 0.00 | 88 | 1018.6 |
| 20260505041540 | 25 | 148 | 3.2 | 9.7 | 0.00 | 0.03 | 0.00 | 89 | 1019.0 |
| 20260505040020 | 25 | 148 | 1.6 | 8.0 | 0.00 | 0.03 | 0.00 | 89 | 1019.2 |
| 20260505034518 | 25 | 148 | 0.0 | 0.0 | 0.00 | 0.03 | 0.00 | 89 | 1019.3 |
| 20260505033016 | 25 | 148 | 0.0 | 0.0 | 0.00 | 0.03 | 0.00 | 89 | 1019.4 |
| 20260505031526 | 25 | 148 | 0.0 | 0.0 | 0.00 | 0.03 | 0.00 | 89 | 1019.4 |
| 20260505030015 | 25 | 148 | 0.0 | 0.0 | 0.00 | 0.03 | 0.00 | 89 | 1019.4 |
| 20260505024513 | 25 | 148 | 0.0 | 4.8 | 0.00 | 0.03 | 0.03 | 89 | 1019.4 |
| 20260505023015 | 25 | 148 | 1.6 | 9.7 | 0.00 | 0.03 | 0.03 | 89 | 1019.4 |
| 20260505021512 | 25 | 148 | 1.6 | 9.7 | 0.00 | 0.03 | 0.03 | 89 | 1019.5 |
| 20260505020012 | 25 | 148 | 1.6 | 4.8 | 0.00 | 0.03 | 0.03 | 89 | 1019.4 |
| 20260505014515 | 25 | 148 | 0.0 | 9.7 | 0.00 | 0.03 | 0.03 | 88 | 1019.1 |
| 20260505013010 | 25 | 148 | 0.0 | 8.0 | 0.00 | 0.03 | 0.03 | 88 | 1019.0 |
| 20260505011513 | 25 | 148 | 0.0 | 9.7 | 0.00 | 0.03 | 0.03 | 88 | 1018.9 |
| 20260505010014 | 25 | 148 | 1.6 | 8.0 | 0.00 | 0.03 | 0.03 | 88 | 1018.9 |
| 20260505004509 | 25 | 148 | 3.2 | 12.9 | 0.00 | 0.03 | 0.03 | 87 | 1018.9 |
| 20260505003008 | 25 | 147 | 0.0 | 6.4 | 0.00 | 0.03 | 0.03 | 87 | 1018.8 |
| 20260505001508 | 26 | 147 | 1.6 | 6.4 | 0.00 | 0.03 | 0.03 | 86 | 1018.7 |
| 20260505000011 | 26 | 147 | 0.0 | 11.3 | 0.00 | 0.03 | 0.03 | 86 | 1018.7 |
| 20260504234507 | 26 | 147 | 1.6 | 12.9 | 0.00 | 0.03 | 0.03 | 86 | 1018.5 |
| 20260504233005 | 26 | 147 | 3.2 | 11.3 | 0.00 | 0.03 | 0.03 | 85 | 1018.3 |
| 20260504231505 | 26 | 147 | 3.2 | 12.9 | 0.00 | 0.03 | 0.03 | 85 | 1018.0 |
| 20260504230009 | 26 | 147 | 4.8 | 12.9 | 0.00 | 0.03 | 0.03 | 85 | 1017.9 |
| 20260504224509 | 26 | 137 | 3.2 | 14.5 | 0.00 | 0.03 | 0.03 | 85 | 1017.6 |
| 20260504223003 | 26 | 152 | 4.8 | 16.1 | 0.00 | 0.03 | 0.03 | 84 | 1017.4 |
| 20260504221503 | 26 | 111 | 1.6 | 12.9 | 0.00 | 0.03 | 0.03 | 83 | 1017.2 |
| 20260504220002 | 26 | 164 | 11.3 | 22.5 | 0.00 | 0.03 | 0.03 | 82 | 1017.2 |
| 20260504214501 | 27 | 163 | 8.0 | 16.1 | 0.00 | 0.03 | 0.03 | 81 | 1017.2 |
| 20260504213002 | 27 | 181 | 6.4 | 19.3 | 0.00 | 0.03 | 0.03 | 80 | 1017.0 |
| 20260504211602 | 27 | 151 | 9.7 | 20.9 | 0.00 | 0.03 | 0.03 | 78 | 1016.8 |
| 20260504210104 | 27 | 150 | 11.3 | 22.5 | 0.00 | 0.03 | 0.03 | 78 | 1016.9 |
| 20260504204603 | 28 | 142 | 12.9 | 25.7 | 0.00 | 0.03 | 0.03 | 76 | 1016.8 |
| 20260504203058 | 28 | 180 | 11.3 | 25.7 | 0.00 | 0.03 | 0.03 | 73 | 1016.7 |
| 20260504201604 | 28 | 119 | 14.5 | 25.7 | 0.00 | 0.03 | 0.03 | 71 | 1016.8 |
| 20260504194555 | 28 | 93 | 12.9 | 27.4 | 0.00 | 0.03 | 0.03 | 77 | 1017.2 |
| 20260504193054 | 28 | 110 | 11.3 | 22.5 | 0.00 | 0.03 | 0.03 | 78 | 1017.2 |
| 20260504191607 | 27 | 144 | 11.3 | 25.7 | 0.03 | 0.03 | 0.03 | 79 | 1017.2 |
| 20260504190054 | 27 | 175 | 3.2 | 16.1 | 0.03 | 0.03 | 0.03 | 85 | 1017.3 |
| 20260504184551 | 26 | 100 | 11.3 | 22.5 | 0.03 | 0.03 | 0.03 | 85 | 1017.5 |
| 20260504183050 | 27 | 112 | 8.0 | 27.4 | 0.03 | 0.03 | 0.03 | 83 | 1017.6 |
| 20260504181551 | 29 | 134 | 8.0 | 24.1 | 0.00 | 0.00 | 0.00 | 74 | 1017.6 |
| 20260504180048 | 28 | 92 | 9.7 | 22.5 | 0.00 | 0.00 | 0.00 | 74 | 1017.6 |
| 20260504174553 | 29 | 166 | 12.9 | 37.0 | 0.00 | 0.00 | 0.00 | 72 | 1018.1 |
| 20260504173046 | 29 | 89 | 12.9 | 27.4 | 0.00 | 0.00 | 0.00 | 73 | 1018.0 |
| 20260504171545 | 30 | 108 | 11.3 | 27.4 | 0.00 | 0.00 | 0.00 | 70 | 1018.0 |